Temp
10 11 11 11 10 10 11 11 11 11 11 10 10 10 10 10 9 9 9 8 8 8 8 7 7 8 8
11 10 10 10 10 10 9 10 10 10 10 10 10 9 9 9 8 8 8 8 8 7 7 6 7 7 8
10 10 9 9 9 9 9 9 10 9 9 9 9 9 8 8 8 8 7 7 7 6 6 5 6 7 7
9 9 9 9 9 9 9 9 9 9 8 9 8 8 8 8 7 7 6 5 5 5 5 5 6 6 6
9 9 9 9 8 8 8 8 8 8 8 8 8 8 8 8 6 5 5 4 4 4 4 4 4 4 4
9 8 8 8 8 8 7 7 7 8 8 9 8 8 7 7 5 5 3 3 3 3 3 4 4 4 5
8 8 8 8 7 7 7 7 7 7 6 7 8 7 7 6 4 4 3 3 3 3 3 4 4 4 5
8 7 7 7 6 7 6 6 6 6 6 6 7 7 7 6 6 4 3 3 3 3 3 3 3 4 4
6 7 6 6 6 5 5 4 5 5 5 5 7 6 6 6 6 5 4 3 3 4 3 3 2 3 3
6 5 5 5 3 3 4 4 3 3 3 3 4 4 3 6 5 4 4 4 4 3 2 2 2 3 3
5 4 4 4 4 3 2 2 3 3 3 2 2 2 3 3 3 3 3 3 2 2 1 1 1 1 2
4 4 4 3 2 1 1 1 1 1 2 2 1 2 2 2 2 2 2 2 1 1 0 0 0 1 1
2 1 1 -1 -2 -2 -1 -1 -0 0 0 1 1 0 1 1 1 1 1 1 0 0 0 0 0 0 1
1 0 -1 -2 -2 -3 -3 -2 -2 -1 0 0 -0 -0 -0 -0 -0 -0 0 -0 0 0 -0 -0 -0 -0 0
-1 -0 0 -1 -1 -3 -4 -3 -2 -2 -2 -1 -1 -1 -1 -1 -1 -1 -1 -1 -0 -1 -1 -1 -1 -1 -0
-1 -1 -1 -0 -0 -1 -5 -4 -4 -3 -3 -3 -2 -2 -2 -2 -2 -2 -1 -2 -2 -2 -1 -2 -2 -1 -0
-1 -2 -3 -5 -6 -5 -5 -5 -5 -4 -4 -4 -3 -3 -4 -4 -2 -2 -2 -2 -2 -2 -2 -3 -3 -2 -1
Height
1464 1467 1470 1471 1472 1473 1475 1475 1475 1477 1477 1477 1478 1477 1476 1476 1474 1472 1470 1469 1468 1467 1466 1463 1462 1460 1459
1457 1459 1460 1463 1465 1465 1467 1468 1468 1468 1469 1469 1469 1469 1468 1466 1464 1463 1462 1461 1461 1460 1459 1458 1456 1455 1453
1448 1452 1454 1455 1456 1457 1457 1457 1460 1461 1461 1461 1462 1461 1459 1457 1455 1453 1452 1453 1452 1453 1451 1452 1451 1450 1447
1442 1445 1447 1448 1448 1449 1449 1452 1452 1452 1452 1452 1452 1450 1449 1447 1445 1445 1444 1444 1445 1446 1445 1444 1444 1444 1441
1437 1439 1441 1442 1443 1443 1443 1443 1444 1445 1445 1445 1444 1443 1441 1438 1436 1437 1437 1437 1438 1439 1438 1439 1439 1438 1437
1431 1433 1434 1435 1438 1436 1436 1436 1437 1439 1438 1439 1435 1435 1434 1431 1430 1431 1432 1432 1432 1432 1434 1434 1433 1433 1432
1427 1428 1429 1430 1434 1432 1433 1431 1431 1433 1431 1431 1430 1428 1427 1426 1424 1425 1426 1427 1427 1428 1429 1429 1428 1428 1428
1422 1424 1423 1425 1427 1426 1427 1426 1427 1427 1427 1425 1426 1424 1423 1421 1421 1420 1420 1422 1422 1423 1424 1425 1424 1425 1424
1419 1418 1420 1422 1422 1421 1421 1421 1420 1421 1422 1418 1420 1419 1418 1417 1417 1417 1417 1418 1418 1418 1419 1420 1420 1421 1421
1414 1415 1416 1415 1417 1416 1416 1415 1416 1415 1417 1414 1413 1413 1412 1411 1411 1411 1412 1413 1413 1413 1414 1414 1415 1416 1417
1410 1411 1409 1409 1411 1411 1409 1409 1409 1410 1411 1409 1407 1408 1407 1405 1407 1406 1408 1408 1407 1407 1408 1409 1410 1412 1414
1405 1404 1403 1405 1406 1404 1402 1404 1402 1402 1405 1403 1400 1402 1401 1400 1400 1400 1401 1402 1401 1401 1402 1403 1405 1408 1411
1399 1399 1398 1400 1398 1397 1397 1395 1396 1395 1396 1395 1395 1395 1395 1394 1393 1393 1394 1396 1395 1395 1396 1398 1400 1404 1408
1395 1394 1394 1393 1392 1390 1389 1388 1387 1388 1389 1389 1388 1388 1388 1388 1388 1388 1389 1390 1390 1391 1392 1394 1396 1400 1404
1390 1390 1387 1386 1384 1383 1382 1382 1381 1380 1381 1381 1381 1381 1381 1381 1381 1381 1382 1384 1386 1387 1388 1390 1392 1396 1400
1385 1382 1380 1378 1377 1376 1376 1377 1377 1376 1376 1376 1375 1374 1374 1374 1375 1375 1376 1379 1381 1382 1384 1386 1389 1392 1396
1378 1376 1374 1374 1373 1372 1371 1371 1370 1370 1370 1370 1369 1368 1367 1367 1368 1370 1371 1374 1376 1377 1380 1382 1385 1389 1392
Wind_Speed
33 30 34 35 33 33 37 41 35 35 32 31 33 32 31 37 39 38 37 34 34 32 33 33 33 31 30
33 39 39 40 39 35 36 40 40 29 33 33 34 33 37 40 38 37 37 32 33 33 32 31 31 30 30
30 31 36 37 36 32 32 27 26 31 32 33 35 37 41 41 38 36 32 31 34 33 31 29 29 29 28
23 24 25 24 21 21 23 29 27 25 26 34 36 38 35 31 29 30 29 32 33 30 30 27 26 26 25
16 16 19 21 22 23 25 22 25 24 26 26 28 28 26 27 26 26 28 30 31 29 27 25 22 22 22
22 22 19 15 15 15 17 19 20 21 22 22 21 21 21 18 17 20 24 26 26 25 23 21 19 19 21
11 12 13 14 16 15 16 16 17 17 17 20 20 19 17 17 14 15 21 24 24 22 21 19 18 20 21
11 12 12 14 16 16 17 17 18 17 17 19 20 21 17 15 15 16 18 21 22 21 22 21 19 19 17
12 13 15 17 18 19 17 18 19 21 21 23 22 20 16 16 14 17 19 20 21 22 26 24 23 19 15
14 16 17 16 16 16 16 18 20 23 19 20 20 20 18 20 16 16 20 24 25 30 28 23 23 24 16
14 15 15 17 19 20 19 20 20 22 24 24 25 23 22 23 24 24 25 23 26 28 26 23 24 22 16
16 16 16 16 17 18 18 19 18 21 21 22 26 25 25 26 26 28 26 24 24 24 24 24 24 23 18
12 12 14 14 14 14 15 16 18 18 19 21 25 24 25 27 28 27 24 23 25 23 21 24 24 23 16
13 13 14 15 15 14 16 17 19 19 19 21 21 21 23 23 25 28 27 22 21 18 21 22 22 19 19
14 16 16 17 18 15 16 17 19 20 20 20 20 22 23 25 27 27 25 24 20 20 21 20 20 21 22
17 17 19 19 20 18 16 17 18 20 21 21 21 21 21 23 25 26 24 24 20 21 22 21 22 24 22
19 19 18 18 18 19 18 19 20 20 21 21 21 20 21 26 25 23 26 24 21 22 21 21 19 17 19
Wind_Direction
237 233 247 251 248 257 262 264 264 277 274 268 269 275 276 293 294 285 292 289 290 288 292 286 285 290 291
249 250 254 252 262 267 268 267 272 265 267 268 265 272 279 289 289 283 286 285 290 286 286 284 285 288 288
253 258 255 253 265 271 273 270 262 271 272 274 272 276 279 284 280 278 281 284 283 280 283 280 282 285 285
250 257 262 266 267 269 260 274 278 278 278 277 275 276 277 280 278 280 281 279 276 278 278 273 277 281 286
256 264 268 271 273 276 276 283 283 282 280 279 278 281 287 287 282 281 281 277 276 276 273 270 279 283 291
256 260 263 265 269 269 271 273 282 285 290 293 297 302 302 300 292 281 278 275 273 271 269 272 278 292 288
243 252 260 266 270 271 275 277 281 288 298 307 309 307 299 300 294 277 268 269 269 268 267 268 275 279 271
253 256 265 270 272 277 279 283 282 280 288 296 308 313 306 309 307 292 273 265 263 264 268 265 267 270 260
278 276 271 271 271 269 274 282 287 280 284 287 289 293 297 304 302 302 281 265 266 273 272 262 257 246 249
270 269 270 271 270 271 273 279 281 284 282 279 286 291 293 290 291 289 288 276 277 275 268 260 256 239 236
280 276 276 273 270 266 263 264 271 276 280 280 284 286 280 280 282 290 290 276 281 278 269 260 249 236 236
286 286 280 274 271 270 268 268 271 270 272 276 277 277 277 280 280 279 277 275 288 279 262 254 239 221 217
288 288 288 286 287 289 281 281 275 277 275 268 275 276 276 271 275 277 270 276 291 276 263 248 234 208 226
303 299 292 289 287 290 293 288 287 273 269 277 271 272 269 267 267 269 268 266 285 269 251 237 219 204 223
299 303 301 300 301 301 296 288 286 289 288 274 269 268 270 264 259 267 261 265 269 259 243 226 217 206 211
303 305 306 305 302 300 298 294 288 286 285 284 281 279 275 261 258 259 255 258 253 245 237 221 221 210 212
301 303 305 306 306 300 299 298 294 289 285 281 278 273 272 261 261 255 251 253 242 229 229 226 217 211 218